Theta_e
314 313 313 313 312 312 312 312 311 311 311 312 310 312 312 317 307 304 314 318 314 314 315 317 319 320 321 319 321 325 329 336 342 342 343 344 345 347 347 348 349 349 349 351 351 350 350 350 349 348 346 347 348 350 344 344 340 341 343 343 343 340 340 340 341 340 339 338 337 337 336 337 336 336 336 336 335 334 333 331 331 331 333 333 334 334 335
312 312 312 313 311 311 311 311 312 312 311 311 311 311 312 313 314 314 313 318 317 316 317 318 320 322 321 322 328 328 328 327 335 339 341 341 343 344 345 347 348 349 350 351 352 352 351 349 349 347 347 349 348 346 342 341 343 341 342 344 343 341 339 340 341 340 339 339 338 337 336 336 337 337 334 334 333 333 332 331 332 332 335 335 334 335 334
310 311 312 312 311 311 309 310 312 312 312 312 312 312 312 315 314 314 314 315 314 318 321 323 323 322 322 324 322 320 325 328 331 336 337 340 340 342 345 347 347 349 350 351 352 351 351 350 349 347 348 348 347 338 337 338 341 342 342 344 343 341 341 342 341 340 339 338 338 336 337 336 336 337 336 334 333 332 332 333 332 336 335 334 333 333 333
309 310 310 310 312 311 310 310 311 311 310 309 311 311 315 314 312 315 314 311 310 316 320 322 323 322 322 319 320 321 328 331 331 332 336 338 340 341 343 345 346 348 348 349 350 350 349 349 346 346 346 343 342 337 337 337 337 340 342 343 341 341 342 342 341 339 337 337 337 335 335 336 337 337 335 334 333 333 332 331 332 332 332 333 334 334 335
307 310 311 310 309 309 307 308 311 312 312 313 313 315 316 315 314 311 308 309 316 318 319 317 317 317 318 321 325 329 331 334 333 333 335 338 340 341 343 344 345 346 346 348 349 348 349 346 343 343 346 338 341 340 339 340 341 339 341 341 340 340 341 340 340 338 338 337 336 336 336 336 337 336 335 333 332 331 329 331 331 332 333 331 333 334 335
308 309 310 311 307 300 302 316 316 315 312 312 311 311 314 316 316 312 314 314 317 317 316 316 318 318 320 325 330 336 331 329 335 335 335 337 340 341 342 344 345 347 347 348 348 349 349 345 338 338 340 338 341 340 338 341 341 342 342 340 338 339 340 339 339 338 336 336 335 335 336 336 336 336 334 332 331 330 330 331 331 330 331 331 332 333 332
306 311 311 304 299 301 319 319 319 318 316 315 313 314 315 315 317 316 315 315 317 318 318 319 320 324 329 330 332 331 333 333 331 333 335 337 339 341 342 343 344 347 348 350 349 349 344 337 337 338 337 340 343 338 338 337 340 343 342 338 338 338 337 337 337 338 336 336 336 337 337 337 338 337 333 332 331 330 328 328 329 330 330 331 332 332 331
311 307 305 297 300 316 315 317 318 320 318 316 315 313 314 316 315 318 316 317 317 318 318 319 325 330 329 329 334 335 336 334 334 332 333 336 337 339 342 344 345 348 348 349 349 346 341 338 336 336 337 338 336 335 337 336 339 340 339 338 336 337 336 336 336 336 336 336 336 339 337 337 336 334 331 331 330 330 331 330 331 331 332 332 333 333 333
304 305 304 303 313 311 313 312 315 315 313 313 312 307 311 317 318 318 317 317 317 317 318 321 328 329 327 327 328 335 334 335 334 334 335 334 337 340 343 343 346 351 350 350 351 352 349 340 339 337 338 338 336 335 334 335 337 336 335 336 336 336 335 334 334 335 336 335 335 336 336 335 335 332 330 329 329 331 331 330 327 327 329 327 330 332 332
310 305 302 303 302 300 306 315 318 319 318 318 317 314 310 318 318 319 317 317 317 318 318 327 328 329 323 314 324 328 330 332 333 335 336 336 339 341 341 346 349 351 351 350 354 345 339 342 340 339 339 337 337 336 335 335 333 333 333 334 335 335 333 335 335 337 337 337 335 334 335 334 334 331 330 330 330 332 329 327 326 328 327 325 327 332 330
308 305 302 300 299 303 311 314 318 320 321 317 318 311 306 316 318 319 317 316 317 318 318 330 330 321 312 312 320 328 332 332 333 334 336 336 338 341 343 344 347 348 350 351 347 347 344 341 341 344 343 338 337 338 336 333 331 331 332 334 334 332 333 335 337 337 336 335 334 333 334 333 333 330 330 330 330 333 331 329 329 333 330 330 331 331 327
307 306 302 300 305 304 313 317 317 318 319 319 314 301 303 316 318 318 319 316 316 319 321 327 327 317 310 313 322 329 333 334 334 338 339 340 340 342 345 347 350 351 351 352 345 338 343 346 347 349 347 338 337 335 334 332 330 330 333 335 335 335 334 335 337 338 337 336 336 335 334 334 335 334 333 331 331 330 329 328 328 330 333 330 329 330 330
304 304 303 305 307 316 319 317 317 318 318 315 305 298 308 318 319 318 319 318 318 321 326 327 316 322 325 330 332 334 333 333 335 338 340 341 342 343 343 344 348 347 349 351 346 347 346 350 349 350 346 342 338 338 338 336 333 332 335 336 335 334 335 337 336 336 336 335 334 334 332 335 337 334 332 330 330 333 331 328 330 331 331 330 328 329 329
304 305 303 303 307 314 316 318 317 318 313 303 302 319 324 320 319 321 319 318 320 321 324 326 321 324 332 332 332 334 333 336 337 337 338 339 341 342 344 346 346 348 345 348 346 339 350 350 347 349 351 347 344 343 340 337 337 334 336 336 335 337 342 340 336 335 335 336 335 333 333 338 336 333 333 333 331 329 331 333 331 331 331 329 330 330 331
306 307 304 300 296 315 316 316 315 316 309 310 321 325 326 321 323 320 321 320 321 323 324 329 331 328 327 330 332 333 336 337 337 338 338 340 339 339 342 344 344 344 345 345 341 335 335 335 347 350 349 347 345 344 343 343 338 336 337 339 345 344 340 336 336 336 335 335 335 335 339 337 334 332 334 332 332 332 332 332 331 330 331 330 329 327 327
304 304 301 300 312 315 318 317 312 317 317 328 329 326 320 324 322 323 323 325 328 333 332 331 332 331 334 335 337 337 337 336 337 339 341 342 341 340 339 340 343 340 345 345 344 339 333 343 348 347 347 346 345 344 345 346 345 345 348 348 343 336 335 335 333 332 332 334 336 338 337 336 334 332 331 332 331 331 332 330 329 329 331 329 328 326 325
308 306 309 317 320 320 319 321 321 321 324 324 325 326 324 323 322 326 327 327 329 337 335 336 333 332 334 336 338 337 337 336 337 339 340 340 340 339 336 333 341 341 341 345 344 345 346 348 347 347 346 344 343 343 346 348 349 348 346 342 336 334 333 332 333 333 333 334 335 335 335 334 332 330 330 330 329 331 330 327 328 328 328 327 326 324 325
318 318 319 318 318 319 319 319 322 320 321 322 323 324 324 325 325 326 324 327 329 336 336 333 332 331 335 336 336 336 338 338 340 341 341 341 341 340 341 343 343 342 342 342 344 344 345 344 345 346 345 344 342 344 346 348 349 344 342 337 334 333 331 331 331 333 332 331 332 334 333 331 331 330 330 328 327 328 328 326 327 327 328 328 327 325 326
307 304 316 316 315 318 319 319 321 321 321 322 324 327 328 329 330 329 331 332 333 335 335 334 331 331 336 337 339 340 341 341 341 340 340 341 340 340 339 341 340 339 339 337 338 339 340 344 342 339 341 341 342 345 347 348 342 341 338 335 333 332 331 330 333 333 329 326 326 329 332 331 329 328 328 327 327 327 326 324 325 326 327 327 327 326 327
308 308 316 316 316 319 320 319 317 317 318 321 324 325 329 331 332 333 333 334 334 335 333 334 333 333 333 334 339 339 339 339 339 340 341 341 341 343 344 342 339 338 337 336 335 336 338 341 342 340 337 339 341 342 342 337 335 336 336 333 332 331 331 330 331 331 328 324 325 326 327 327 325 326 330 329 327 324 325 325 326 326 326 326 326 326 324
312 314 316 315 317 317 319 318 319 317 316 319 323 325 327 329 328 330 332 333 334 334 332 334 334 331 334 335 332 328 333 336 335 336 336 339 339 339 338 339 341 343 342 340 342 339 340 341 340 337 337 337 336 341 336 335 338 335 333 331 331 330 330 328 329 327 327 329 328 327 327 329 327 326 329 326 324 326 331 328 327 324 324 324 326 325 324
307 308 311 314 309 310 316 317 316 316 318 321 324 325 325 327 328 330 331 332 334 332 334 336 333 334 334 332 330 326 329 333 336 339 341 340 340 341 343 344 345 343 341 342 340 340 340 337 337 337 338 337 335 333 335 337 337 336 335 332 329 326 328 326 325 326 328 327 327 326 324 323 324 326 309 300 308 325 324 309 303 299 304 321 319 323 324
307 310 314 317 315 315 316 316 316 317 320 322 322 324 324 326 329 330 332 331 331 332 332 332 330 333 333 336 334 328 330 337 340 340 339 338 338 337 340 340 340 340 340 338 339 338 338 336 335 335 334 334 335 332 335 335 334 336 333 330 326 324 326 325 325 326 325 324 326 328 327 326 325 324 325 317 299 298 305 307 300 295 295 296 298 303 314
311 312 312 313 313 311 313 315 317 318 323 324 320 320 323 325 327 331 332 333 332 332 332 333 332 331 332 333 330 331 333 333 338 339 339 340 338 337 336 337 337 336 335 334 334 335 335 334 333 333 332 333 334 332 334 333 334 335 333 330 327 326 326 326 328 326 325 325 325 324 325 326 326 325 323 323 315 300 297 299 298 295 295 294 294 296 298
309 312 313 314 314 315 316 319 320 322 326 321 318 319 322 324 325 328 330 333 334 331 331 331 330 330 329 331 334 334 336 336 337 339 339 339 337 332 329 331 333 334 333 333 333 333 333 332 332 332 331 331 333 330 333 333 333 333 333 329 327 325 326 327 325 326 323 325 325 325 325 325 325 325 324 321 314 312 310 298 297 296 295 295 295 295 295
310 311 312 314 314 314 316 317 318 319 319 319 319 320 322 325 328 329 330 333 331 329 329 327 328 330 330 329 332 333 336 335 337 336 332 331 329 330 330 331 333 334 334 334 333 332 331 330 331 329 329 329 332 333 329 334 333 333 331 329 327 325 324 326 326 326 326 327 327 327 327 329 328 326 324 322 320 316 314 314 311 305 299 296 297 297 295
309 311 310 309 309 311 315 314 313 317 317 318 319 321 322 323 328 329 330 332 328 327 326 326 327 334 334 331 334 333 332 334 333 333 332 331 328 330 330 334 334 334 333 333 334 334 332 330 329 329 328 329 333 334 333 332 331 330 329 328 327 325 322 323 326 328 328 328 326 325 326 326 326 325 324 326 323 320 317 316 317 318 317 314 304 300 309
310 311 311 307 308 311 313 316 318 318 318 319 321 320 321 322 325 327 326 327 325 325 326 326 326 332 332 333 333 333 332 330 329 331 332 330 331 333 335 334 333 332 332 332 332 330 329 328 327 327 329 333 334 333 331 332 331 329 328 328 328 328 329 326 326 328 328 326 326 327 327 324 324 324 323 321 319 320 320 320 318 318 318 320 318 306 302
311 311 314 314 315 315 317 317 317 317 317 319 320 320 321 320 320 322 323 325 326 326 326 324 331 332 330 331 330 329 328 328 331 332 333 333 332 332 333 333 332 330 330 329 328 329 328 328 328 327 330 331 330 331 330 330 330 329 329 328 328 329 330 330 329 329 327 325 327 326 323 323 323 323 322 321 320 320 319 317 317 317 317 318 318 316 313
312 314 314 314 315 315 315 313 314 315 315 317 317 317 318 320 319 319 321 324 326 327 327 329 330 328 327 328 329 328 327 330 335 334 331 331 331 331 331 331 329 330 329 329 328 329 328 327 327 327 328 328 328 331 329 330 330 330 329 329 329 329 331 331 330 327 327 326 324 320 323 323 325 323 319 317 315 316 314 313 314 315 314 315 312 313 312
313 315 314 313 313 314 313 314 316 316 316 316 316 316 317 319 320 321 321 324 327 326 328 331 330 329 327 326 328 330 331 334 333 332 331 331 331 331 330 330 326 325 327 328 329 328 328 328 327 327 329 328 327 328 329 328 329 330 329 328 330 320 319 322 322 326 325 324 322 321 321 320 319 318 316 315 313 311 312 312 312 311 311 311 310 309 309
312 312 312 313 313 314 316 317 317 317 317 316 314 314 316 317 318 321 322 322 326 330 331 331 329 330 329 332 334 334 333 332 331 331 330 331 331 332 332 330 330 329 329 329 328 327 327 327 325 326 329 328 328 329 328 329 330 328 328 325 325 325 322 320 324 324 324 322 321 320 319 317 317 317 316 314 313 312 311 311 309 309 308 308 307 306 306
311 311 311 313 313 313 313 314 313 313 315 315 316 316 317 318 318 319 321 323 325 327 328 331 332 332 333 333 332 331 331 331 330 330 329 329 329 329 331 330 330 329 329 328 328 327 326 325 325 328 329 328 327 327 327 327 328 327 327 325 325 324 322 320 321 321 322 320 319 319 318 317 315 314 312 312 311 311 310 309 308 307 306 306 305 305 303
313 313 315 316 316 313 313 314 315 316 315 315 316 315 315 317 318 319 322 328 326 327 329 331 332 331 330 330 330 327 326 327 327 326 327 327 327 328 329 328 328 327 327 327 327 327 327 327 327 327 326 326 326 326 325 325 326 327 325 324 323 322 321 321 320 321 319 318 317 318 315 314 313 313 313 312 311 311 310 308 307 306 305 304 304 303 300
317 317 317 317 319 319 318 316 316 316 316 316 315 316 317 319 321 321 325 326 325 328 331 329 329 328 327 326 325 326 327 328 327 327 326 326 326 326 327 325 326 327 326 326 326 325 326 325 324 325 324 324 324 324 323 325 325 325 323 322 321 321 320 320 319 317 316 316 315 314 314 312 313 311 311 311 311 310 309 308 307 306 306 305 304 304 302
315 316 318 319 320 320 318 318 318 318 319 319 319 317 316 317 321 324 326 326 328 328 326 326 326 323 326 326 326 325 326 326 327 326 325 324 324 325 325 325 325 324 322 322 323 323 323 324 321 321 322 322 321 321 323 322 324 322 321 320 319 319 319 317 316 316 315 314 313 313 314 311 310 310 310 310 310 310 309 308 306 306 305 305 304 304 304
316 317 318 318 319 320 320 320 321 322 322 322 322 322 321 322 323 326 326 326 325 325 324 323 322 321 321 323 324 325 326 325 324 323 323 323 324 324 324 323 323 320 320 318 321 322 322 323 319 318 321 322 321 322 321 320 321 321 320 319 318 318 316 315 315 315 314 314 313 312 310 310 310 309 309 308 308 307 306 305 305 305 304 304 304 303 302
316 316 318 318 319 319 320 321 321 322 321 321 323 323 323 323 325 326 325 324 324 325 325 324 323 323 324 324 323 322 323 323 322 322 322 323 323 321 320 319 318 318 317 318 320 320 320 320 319 320 320 320 320 320 319 316 317 318 318 317 316 316 315 314 313 312 311 311 311 311 310 311 310 309 308 307 306 306 305 305 304 304 304 303 303 303 302
316 317 318 318 319 319 321 322 323 323 321 321 322 324 326 326 326 324 323 323 324 325 324 324 324 323 323 322 321 321 320 321 320 320 321 321 321 320 319 319 319 318 319 321 320 319 319 320 321 319 319 319 319 317 316 314 314 317 316 315 314 313 311 311 310 310 309 309 308 308 308 307 307 308 308 306 305 305 305 304 303 303 303 303 302 302 303
316 316 317 317 317 319 320 321 321 323 322 323 324 324 324 323 323 323 323 323 324 324 323 322 321 321 320 319 319 319 320 320 320 320 320 320 320 319 318 318 319 320 320 318 320 319 317 316 317 317 316 317 317 316 314 312 312 313 313 312 312 311 310 310 309 308 308 308 307 306 307 306 306 305 305 305 304 303 303 303 303 303 302 302 302 302 302
317 317 317 317 318 318 318 319 320 323 322 323 323 325 325 324 323 322 320 321 322 322 320 319 319 318 319 319 318 318 319 319 319 319 320 319 317 316 314 313 317 318 318 318 319 318 317 316 316 316 316 316 315 313 313 310 312 312 311 311 311 310 310 309 309 308 307 307 307 307 307 306 304 304 304 304 304 303 303 303 302 302 302 302 301 301 301
317 318 318 318 318 319 319 320 320 320 322 323 323 322 321 321 321 319 320 320 321 322 321 320 319 319 320 319 318 317 317 317 318 317 318 317 315 315 313 314 317 317 318 317 317 316 316 315 315 314 315 314 313 310 310 311 312 311 311 311 310 310 310 309 308 308 308 307 307 306 306 306 305 304 303 303 303 302 302 302 302 302 302 302 302 302 301
320 321 321 318 319 320 320 321 321 322 322 321 320 320 320 320 319 319 318 319 319 321 321 320 319 319 318 318 317 316 316 316 316 316 317 317 318 317 316 315 317 317 316 316 315 316 314 314 314 313 311 311 310 308 309 311 311 310 310 310 309 309 308 307 307 307 306 306 305 305 305 304 304 303 302 302 302 301 301 302 301 301 301 302 302 301 301
320 319 320 321 322 322 322 321 321 320 318 319 321 322 322 322 322 320 318 318 319 320 319 319 318 318 318 318 317 315 315 315 315 315 315 314 315 317 318 316 316 316 315 314 313 313 313 312 310 308 307 307 306 306 309 309 309 309 309 309 308 308 307 306 306 305 305 304 303 303 303 303 303 303 303 302 301 301 301 301 301 301 302 302 301 301 300
319 320 319 319 318 319 319 320 320 319 319 320 322 322 321 320 321 321 321 321 321 320 320 319 318 318 318 317 316 315 316 316 316 315 313 312 311 312 316 315 314 313 312 312 312 312 312 310 308 307 306 305 304 305 308 307 307 307 308 308 308 307 306 306 305 305 304 303 303 303 303 302 303 302 303 302 301 301 301 301 301 301 300 301 301 300 300
318 320 318 315 316 316 318 317 319 320 319 319 319 320 321 322 320 321 322 321 320 319 320 319 319 318 319 318 318 317 318 317 317 317 316 314 312 313 315 314 314 312 311 311 311 311 310 309 307 305 304 304 304 306 306 305 305 306 307 307 307 306 306 305 305 304 303 303 303 303 303 302 302 302 302 302 301 302 301 300 300 301 301 301 301 301 300
317 318 318 318 317 318 318 319 318 319 319 319 318 319 320 322 321 323 322 323 322 321 321 321 320 320 320 319 318 315 314 314 315 316 316 315 315 314 314 313 312 311 310 311 310 310 308 307 306 305 303 303 303 305 304 304 304 304 305 305 305 306 305 305 304 303 303 303 302 302 301 301 302 302 301 300 300 300 301 300 300 301 300 300 300 298 298
313 313 313 316 317 316 317 318 317 316 317 318 318 319 319 322 323 323 323 323 322 322 322 322 322 322 321 319 319 318 316 314 311 312 315 314 313 314 313 312 311 310 309 308 308 310 309 307 306 304 303 303 305 305 304 304 303 303 303 304 305 305 304 304 303 303 303 302 302 302 301 301 301 302 301 301 301 301 301 300 300 300 300 300 299 299 299
315 316 317 320 318 318 317 316 316 316 316 319 321 321 322 323 323 322 322 322 321 321 320 320 321 321 321 319 319 317 317 317 315 311 314 314 313 313 313 312 311 310 310 310 310 310 308 307 305 304 303 305 305 304 304 304 303 302 302 303 304 303 304 303 303 303 302 302 302 302 302 301 301 301 301 300 300 300 300 300 300 300 300 299 299 299 299
316 317 318 318 318 319 317 314 313 319 322 322 323 323 323 322 320 320 320 320 320 318 318 318 319 320 320 320 319 319 318 318 319 315 315 314 314 314 313 312 311 309 310 310 310 309 308 307 305 305 305 306 305 304 304 303 303 303 302 301 302 303 302 303 302 300 302 302 302 301 300 300 301 299 300 300 300 300 300 300 300 297 294 297 298 299 298
315 316 316 317 318 318 320 320 322 321 322 322 323 323 322 319 318 319 320 319 319 317 316 317 318 319 319 319 319 318 319 319 316 315 313 313 314 313 313 313 312 309 310 309 309 309 307 307 307 306 305 305 304 305 304 304 303 302 301 302 302 302 301 300 301 301 301 301 301 301 301 301 301 300 299 300 299 299 299 298 299 299 298 297 298 299 299
318 320 320 319 319 320 321 322 323 323 322 322 321 320 319 318 318 318 319 318 319 316 315 315 314 316 317 317 317 318 319 317 316 314 313 312 312 312 312 311 310 309 309 309 309 309 308 308 307 306 306 305 305 304 303 300 301 302 302 302 301 301 301 301 301 301 302 300 300 301 300 300 301 300 300 300 300 299 299 299 299 299 299 299 299 299 299
Wind_Speed
9 4 6 6 9 12 13 15 14 17 17 16 17 15 12 6 10 11 2 4 8 10 12 11 9 8 9 10 10 9 7 5 7 9 11 12 12 13 14 15 15 16 16 15 16 16 14 14 14 12 10 10 9 9 9 8 8 8 7 7 8 8 7 7 7 7 6 6 5 6 6 6 7 8 8 8 9 9 9 10 9 10 11 11 11 11 11
9 6 7 7 11 9 12 14 14 15 16 17 17 16 12 11 12 11 6 4 8 13 14 12 11 8 9 9 7 8 9 10 9 10 11 12 13 14 15 16 16 15 16 16 16 16 14 15 13 12 10 10 10 10 10 9 9 8 7 9 9 8 8 8 7 7 6 6 6 6 6 7 8 9 8 8 8 8 9 10 10 9 10 10 10 10 9
7 6 6 9 10 10 12 11 12 13 13 14 14 12 6 7 8 8 8 9 11 11 10 7 5 5 6 7 10 13 12 9 9 11 12 13 14 15 15 15 16 16 16 16 16 16 15 15 14 11 10 10 9 11 10 10 9 8 9 9 9 8 8 8 8 7 6 7 7 7 7 7 8 9 9 9 8 8 9 9 9 9 9 9 9 9 9
7 6 8 8 9 11 11 11 11 11 13 12 9 9 7 9 8 6 8 10 10 8 5 1 6 8 10 12 13 12 8 8 8 11 12 12 13 14 15 16 16 16 17 17 17 17 16 15 14 11 10 10 11 11 10 9 8 9 10 10 9 9 9 8 8 7 7 8 8 8 8 8 9 9 8 9 8 9 9 9 8 8 9 9 9 8 7
9 8 7 10 10 10 10 12 12 13 12 10 9 8 7 9 7 8 9 9 6 6 7 11 11 11 11 11 10 8 7 7 8 10 10 11 12 13 14 15 17 18 19 18 18 17 15 14 13 13 12 12 12 11 10 9 8 9 10 10 9 9 9 8 8 7 8 8 8 8 8 9 9 9 8 9 9 9 9 8 8 8 9 9 8 8 7
4 11 9 9 9 12 10 3 10 13 11 10 10 10 9 8 7 7 7 8 7 8 9 9 9 10 10 9 7 5 6 6 7 9 9 10 10 11 14 15 17 17 16 16 16 16 15 15 14 13 12 12 11 11 10 9 10 10 10 9 9 9 8 8 8 8 8 8 8 9 9 9 9 9 8 9 9 9 8 7 7 8 9 9 8 7 7
8 6 7 9 13 10 4 3 4 2 7 11 10 9 8 8 9 10 10 9 9 8 9 9 9 8 8 8 9 9 7 7 7 8 8 8 9 11 12 14 15 15 16 16 16 15 16 15 13 13 12 12 11 11 10 10 11 11 10 9 9 9 9 8 8 8 8 8 8 8 8 8 8 8 8 8 7 7 8 8 8 8 8 9 8 8 7
3 8 10 11 9 4 5 5 6 6 2 2 7 8 8 9 8 9 10 9 9 8 8 7 4 5 7 9 9 9 9 9 8 7 6 7 8 10 10 13 13 14 15 15 16 15 13 14 14 13 13 13 12 11 11 12 11 10 10 10 10 9 9 8 8 8 8 8 8 8 8 8 8 8 8 7 8 7 7 7 7 8 8 9 9 9 8
10 9 11 11 6 5 5 4 5 7 6 8 8 9 8 7 8 8 7 8 8 8 6 3 2 2 5 8 7 6 6 6 7 6 5 5 7 8 9 11 13 14 14 14 15 13 13 13 13 13 12 13 12 11 12 12 11 11 10 10 10 9 9 8 8 8 7 8 8 8 8 8 8 7 7 8 8 7 7 8 8 8 8 9 9 9 11
9 11 11 11 12 13 9 7 9 9 5 6 5 5 7 6 9 7 5 6 5 7 4 3 2 1 4 9 3 4 4 5 5 5 4 4 5 7 9 10 11 13 13 13 13 13 15 14 14 13 13 13 12 12 12 12 11 11 11 11 10 9 8 8 8 7 7 7 8 8 8 8 8 7 7 7 7 6 7 9 10 8 8 10 9 6 6
8 12 12 11 12 10 8 9 5 7 3 5 7 5 9 5 7 4 5 6 6 6 4 4 4 5 7 7 5 3 5 5 5 6 4 4 6 8 9 12 13 14 13 13 14 13 14 14 14 13 14 15 14 13 13 13 11 11 12 11 10 9 8 8 7 6 6 7 7 7 7 8 7 7 5 6 8 5 4 7 8 8 6 7 9 10 13
10 10 12 13 8 8 3 8 9 7 6 6 3 9 8 3 2 1 4 5 6 5 5 5 6 6 8 4 5 5 5 5 5 5 6 6 7 8 9 10 11 12 12 12 12 14 13 13 14 14 14 14 14 14 14 13 12 12 12 10 9 8 7 7 6 5 6 6 7 7 7 8 6 2 1 4 6 6 6 5 4 4 3 5 7 8 9
12 13 12 9 9 4 6 5 7 8 7 4 8 10 5 2 1 0 3 6 6 5 6 6 7 7 3 5 5 5 7 7 6 5 4 5 6 8 9 10 10 11 10 10 12 12 12 12 13 13 12 13 14 13 12 13 13 12 10 9 9 8 7 6 5 6 6 6 7 7 6 7 1 2 1 4 5 4 5 4 3 3 4 5 5 6 8
12 12 11 11 9 4 6 4 5 8 5 9 10 3 5 6 4 1 4 8 7 6 8 8 8 3 6 3 4 6 6 7 6 6 7 7 7 7 7 10 9 9 11 11 12 14 11 12 11 10 10 11 11 11 11 14 13 10 10 10 9 7 5 4 4 4 5 5 6 5 4 5 5 3 4 5 5 6 4 3 3 4 4 4 5 6 7
10 8 10 7 9 4 3 6 2 2 9 4 4 3 3 3 5 6 6 8 10 8 9 10 7 6 6 6 6 7 7 8 8 8 9 8 8 9 9 10 10 9 8 9 12 14 13 12 8 8 10 11 11 10 12 13 12 10 9 7 6 5 4 3 3 4 5 6 6 5 4 5 5 3 4 6 7 6 5 4 4 4 4 5 6 7 8
8 8 9 4 4 6 3 3 3 3 3 6 4 6 8 7 7 6 7 7 8 8 9 8 8 6 5 5 7 8 8 8 8 8 8 7 7 7 8 9 9 10 7 8 8 11 11 8 7 7 8 7 7 9 12 10 9 8 7 7 7 5 4 4 4 4 5 5 4 4 5 5 4 4 5 6 6 5 4 4 4 5 4 4 5 6 8
6 5 2 8 3 3 3 4 4 6 7 7 7 8 9 10 9 7 7 9 8 7 7 6 7 6 6 7 8 9 9 10 9 9 9 8 7 7 7 8 8 8 7 6 5 5 5 5 4 6 7 9 9 11 10 9 8 8 8 8 6 5 5 4 3 4 3 3 2 3 3 4 5 4 5 6 6 5 5 6 6 5 5 4 5 8 7
1 2 6 2 1 2 2 1 3 6 7 7 7 8 9 9 11 10 10 9 8 6 6 8 8 8 7 8 7 8 8 8 8 8 8 7 7 7 7 7 6 4 4 3 4 4 4 3 3 4 5 6 9 10 10 8 8 8 9 8 6 6 4 3 3 2 2 1 1 1 3 4 5 4 5 5 6 5 6 6 6 6 6 4 6 7 6
3 3 3 2 3 2 3 5 5 6 7 9 8 8 8 10 10 10 9 9 8 7 7 9 9 9 9 8 7 7 7 7 8 8 8 7 6 6 6 5 4 2 2 3 3 4 4 3 4 6 7 7 8 8 6 7 8 8 7 7 6 4 3 3 2 2 1 1 3 2 4 4 4 5 5 5 5 6 7 7 7 6 6 6 6 6 6
6 1 5 5 5 0 4 4 6 9 12 12 11 9 9 9 10 10 9 7 7 6 8 9 10 9 10 9 7 7 7 7 7 7 7 7 6 6 6 5 3 2 2 3 3 3 2 1 2 3 4 5 6 6 7 7 6 6 6 6 5 4 4 2 3 3 1 3 3 4 3 4 6 6 5 4 6 8 8 7 6 6 6 6 6 6 7
0 4 1 8 5 5 6 7 8 10 11 13 14 12 11 10 10 10 8 7 6 7 7 9 8 8 7 8 9 10 8 8 7 7 6 6 6 6 6 5 4 3 2 2 3 3 3 3 2 1 1 3 2 2 2 3 5 6 5 5 3 2 3 3 4 3 4 4 4 3 3 4 5 5 4 5 5 5 4 5 4 5 6 6 4 5 6
9 3 5 6 3 4 1 8 11 13 14 14 13 12 12 10 10 8 7 6 5 5 5 6 8 7 5 6 5 9 9 8 9 9 8 7 8 7 6 6 6 6 6 5 4 4 4 2 2 1 2 1 1 4 2 3 4 5 6 5 2 4 4 3 6 5 4 4 3 4 6 6 6 2 12 12 9 6 1 8 10 11 9 5 5 5 4
2 6 5 6 4 7 8 9 11 13 12 11 12 12 11 12 10 7 8 6 8 7 6 5 7 8 7 6 5 8 9 7 7 7 7 6 6 6 6 6 6 6 6 5 4 4 3 2 2 2 1 2 1 1 3 2 3 5 5 5 3 4 4 6 1 2 5 7 4 4 4 4 4 5 2 8 14 16 12 7 8 9 9 8 8 7 7
5 4 6 5 5 8 11 14 12 11 8 9 12 11 11 10 10 9 9 8 9 8 8 5 6 8 7 5 4 6 8 8 7 7 6 6 6 6 5 5 6 6 5 4 4 4 3 2 3 2 2 2 2 2 3 3 4 4 6 5 4 5 5 4 3 3 5 4 4 4 4 3 4 4 2 3 5 8 8 8 7 6 7 7 7 7 10
6 8 9 7 7 8 10 11 12 8 4 10 11 12 12 11 11 9 9 9 9 11 9 8 8 8 7 7 6 7 6 7 7 7 7 6 5 4 5 6 6 5 5 4 4 3 3 2 2 1 2 2 1 3 1 2 2 3 4 3 4 4 3 3 4 4 4 4 4 4 4 4 3 3 1 4 5 5 3 1 3 2 5 7 7 6 6
8 8 10 10 9 9 7 8 7 7 11 12 12 12 12 11 8 8 9 8 8 10 11 10 9 8 7 8 7 7 6 7 7 6 5 5 5 5 5 6 6 5 5 5 4 3 3 2 1 1 1 2 1 1 2 2 2 3 2 2 2 2 3 4 3 3 4 3 3 3 3 2 2 2 2 5 7 7 7 6 4 2 2 6 8 7 8
8 8 10 12 11 9 6 7 9 12 13 13 13 13 13 11 7 6 7 6 9 10 11 12 11 8 7 6 6 7 7 7 6 5 5 6 7 6 5 6 6 6 6 5 4 4 4 3 2 1 0 1 2 2 2 2 2 2 2 3 4 4 4 3 4 4 3 2 2 3 2 1 1 2 2 3 5 7 8 8 6 7 7 6 6 7 8
5 6 6 9 9 10 11 11 11 12 13 12 12 13 12 10 8 7 8 12 13 10 10 12 10 10 8 7 7 7 8 8 8 7 7 7 6 6 6 7 7 6 5 5 5 4 3 2 2 1 1 3 2 1 1 1 2 3 4 4 5 4 4 6 5 3 1 1 1 1 0 0 1 1 2 3 3 3 2 2 1 2 1 1 5 6 11
6 6 6 8 9 10 11 11 11 11 12 12 11 10 11 12 11 9 10 12 11 10 10 10 9 11 10 9 8 9 9 9 9 9 7 6 6 7 7 7 6 5 5 4 4 3 3 2 2 1 2 1 1 2 3 2 3 4 4 5 4 4 4 4 4 2 2 0 1 1 2 1 2 4 5 5 5 4 2 2 2 1 2 2 2 6 4
8 9 10 10 10 11 12 12 12 12 12 12 12 12 11 11 11 11 11 11 9 10 13 11 10 10 10 11 10 10 10 9 8 8 8 7 6 6 6 5 4 4 4 4 3 2 2 1 1 2 2 1 1 2 3 2 3 1 2 2 4 3 3 3 3 2 2 2 3 5 4 4 4 4 5 5 5 5 4 4 4 3 3 3 2 3 4
10 10 12 12 13 12 12 12 11 12 12 11 11 12 12 11 11 10 11 10 11 12 11 10 11 12 11 10 9 6 7 9 8 8 8 7 7 6 5 4 2 3 3 3 3 2 2 2 2 2 2 2 2 2 2 2 2 2 2 1 2 8 8 5 2 3 3 4 5 5 5 5 5 5 6 7 6 4 3 2 3 4 3 4 4 5 6
12 12 13 12 11 11 11 10 10 11 11 11 12 13 11 11 11 11 10 11 10 11 10 11 11 10 9 8 8 8 8 8 8 8 8 7 7 5 4 2 2 3 4 4 3 2 2 2 2 2 1 1 1 2 2 1 2 2 1 1 1 3 3 1 3 2 4 5 6 6 7 6 5 5 4 5 5 5 3 3 3 4 4 4 4 5 6
10 12 11 10 11 13 14 14 14 14 14 14 12 11 10 10 11 11 10 10 9 11 10 8 9 9 8 7 7 8 9 9 8 8 8 7 7 5 4 3 4 5 4 4 4 4 3 3 3 3 2 2 2 2 2 0 1 1 2 1 2 2 5 2 4 5 5 6 6 6 6 6 5 4 4 5 4 3 2 2 3 3 3 4 5 5 6
9 10 11 12 13 13 14 15 14 15 15 14 14 13 12 11 10 9 8 6 7 7 9 9 9 10 9 8 7 7 8 7 6 6 7 7 6 6 5 4 5 5 5 5 4 4 4 4 3 3 3 2 2 2 2 0 2 3 3 3 3 4 4 5 4 5 6 6 6 6 5 5 5 4 3 2 1 1 2 2 2 2 3 3 4 4 5
9 11 12 13 13 14 14 14 14 15 16 15 14 13 11 10 9 8 5 6 7 6 8 8 9 10 10 8 7 7 7 7 7 7 7 6 6 6 5 5 5 5 5 4 4 3 4 3 2 2 3 3 4 3 3 3 4 5 4 4 4 5 4 4 5 6 5 6 6 6 4 4 3 3 1 0 1 1 1 1 0 1 2 3 3 4 4
10 10 10 10 12 14 15 15 15 16 15 14 13 13 12 11 8 8 6 6 5 9 9 9 6 2 7 7 7 8 9 9 9 8 7 6 5 5 5 5 5 5 5 5 3 3 0 4 7 6 3 2 1 2 3 3 5 4 5 4 4 4 5 5 5 5 5 5 4 3 3 3 3 2 1 2 1 2 1 1 1 2 2 2 2 2 2
11 11 10 11 12 14 16 14 13 13 12 11 10 9 9 7 6 3 4 8 10 11 11 11 10 5 5 5 7 8 8 7 7 7 6 6 6 6 5 5 4 3 3 3 2 1 3 5 5 2 2 1 1 5 3 7 3 5 5 5 5 5 5 5 5 5 5 5 5 5 5 5 4 3 3 2 2 1 1 2 2 2 2 2 2 2 3
11 12 12 11 12 14 14 14 13 12 12 11 9 6 4 3 3 5 6 7 9 9 9 10 10 10 8 6 6 7 7 7 8 7 6 6 6 6 5 4 2 2 1 3 2 3 4 4 2 1 3 2 3 5 4 4 3 2 3 2 3 3 3 4 4 4 4 4 2 3 4 3 2 4 3 2 2 2 2 3 3 3 3 3 3 3 3
11 10 11 11 12 12 13 13 12 11 10 10 6 4 5 7 8 8 9 9 10 10 11 12 12 10 8 7 6 6 6 6 7 7 7 6 5 5 5 4 3 2 3 3 4 4 4 3 3 3 3 4 5 6 4 2 5 1 3 3 3 3 4 4 4 4 4 4 3 3 3 4 3 3 2 3 3 3 3 3 4 4 3 3 3 3 3
10 10 11 11 11 11 10 9 7 6 5 4 6 7 9 11 12 12 12 11 9 9 10 10 11 9 8 6 5 6 5 4 5 6 7 6 6 7 6 6 5 5 5 3 4 5 4 2 1 4 2 2 2 4 4 2 0 3 2 2 2 3 3 3 4 4 4 4 4 4 3 3 3 3 3 4 4 4 4 5 5 4 4 4 3 3 2
9 9 8 9 10 10 8 7 4 3 2 3 5 8 8 9 10 11 12 12 11 11 10 8 8 7 7 8 7 7 7 6 5 5 5 6 6 5 5 6 4 4 4 4 5 5 1 3 2 3 3 2 3 2 4 2 1 2 1 2 2 3 4 3 3 3 4 4 4 4 3 3 4 4 4 5 5 5 5 5 4 4 4 4 3 3 2
9 9 8 8 8 8 6 4 4 3 4 5 8 10 11 10 9 9 8 7 6 7 7 6 5 6 7 8 8 8 7 7 6 6 5 3 4 5 5 6 5 6 9 9 7 5 5 4 2 1 2 2 3 3 4 1 1 2 2 2 2 2 1 3 3 2 2 2 2 1 2 3 2 3 4 3 4 4 4 5 5 4 4 4 3 3 3
9 7 6 5 5 5 4 2 2 5 6 7 8 8 10 10 10 9 8 6 6 7 9 9 9 8 7 8 9 9 8 8 8 7 6 4 3 2 4 7 6 5 6 3 3 3 2 2 2 4 6 4 4 3 5 3 1 1 1 2 2 2 3 2 1 2 3 2 2 2 2 3 4 4 4 4 4 4 4 4 4 4 4 4 3 2 2
7 5 5 5 4 2 3 1 4 6 7 7 7 8 8 7 7 7 6 6 7 7 7 7 8 8 8 8 9 8 8 8 8 7 7 7 6 6 6 6 6 6 7 4 2 2 2 3 5 7 8 5 3 3 3 1 1 1 1 2 3 3 3 3 3 3 2 2 3 3 3 2 2 4 4 4 4 4 4 4 3 3 4 3 3 2 1
7 5 4 0 3 1 4 1 1 3 4 5 6 6 7 6 6 5 5 6 6 6 6 6 7 8 8 8 7 7 7 7 7 7 7 7 7 6 6 7 7 6 5 3 4 4 5 6 8 8 6 4 1 4 2 0 1 1 1 2 3 3 3 3 3 3 3 3 3 2 2 3 3 2 3 3 2 4 4 4 4 3 3 3 3 3 2
7 4 2 1 3 5 4 3 2 3 3 3 4 4 4 4 4 5 6 6 6 6 6 6 7 7 7 8 8 8 8 7 7 6 5 5 6 7 7 7 6 6 7 6 4 5 7 11 10 8 6 4 4 3 1 1 1 1 2 2 3 2 3 3 3 3 3 4 4 3 4 3 3 3 2 4 4 3 3 2 2 3 3 2 2 2 2
5 3 3 2 2 2 0 3 3 2 3 4 5 5 4 4 4 5 6 6 6 6 6 6 6 6 6 7 7 7 7 7 7 6 6 6 7 8 8 7 9 10 8 5 5 6 7 9 9 9 6 3 4 1 1 0 0 2 1 2 2 4 4 3 3 3 4 4 3 3 1 1 3 2 3 1 2 2 3 4 4 3 3 3 3 2 3
2 3 5 4 2 1 3 4 5 6 5 4 3 4 4 4 5 5 6 5 5 5 5 5 5 5 6 7 6 5 5 6 7 7 6 7 7 8 8 7 7 8 6 6 5 8 12 11 11 9 7 5 4 1 1 1 1 1 1 2 2 2 3 3 4 4 4 4 4 5 5 5 4 3 3 3 3 3 4 4 4 4 4 5 5 5 5
4 4 4 4 4 3 5 5 5 3 4 5 5 4 5 5 6 5 5 5 5 4 4 5 5 5 6 7 7 5 6 5 5 7 7 7 7 7 6 8 12 11 7 4 4 6 10 11 10 8 8 7 2 1 1 1 1 1 1 2 3 3 3 3 4 4 4 4 4 4 3 3 3 3 3 3 3 3 3 3 3 4 5 4 4 3 4
2 1 1 1 2 2 1 2 5 4 6 5 5 5 5 5 5 5 4 4 4 3 4 4 5 5 5 6 6 6 6 5 4 6 7 7 7 6 7 8 8 11 8 2 2 7 12 12 10 9 7 4 1 0 1 2 1 2 0 1 2 4 2 2 5 3 1 2 3 3 3 3 3 1 1 2 2 2 3 3 4 6 10 2 4 4 5
6 6 6 7 7 6 6 3 3 4 4 5 5 4 4 3 4 4 4 4 4 4 4 4 4 5 5 6 6 6 7 7 6 7 7 7 7 6 7 7 8 8 6 4 3 6 9 7 7 6 5 4 2 2 2 1 3 1 3 5 3 4 4 3 5 6 5 3 3 3 3 3 3 3 4 4 3 3 4 4 4 4 6 6 5 5 5
7 6 5 5 5 5 4 4 4 5 4 2 3 3 2 1 3 3 3 4 3 4 3 3 4 5 5 5 6 6 7 7 7 7 6 7 7 6 6 5 5 7 7 6 4 3 4 6 5 3 4 4 4 4 3 4 4 4 3 3 2 4 3 4 5 5 4 4 5 4 4 4 4 4 4 4 4 4 4 5 5 5 6 6 5 4 4
Wind_Direction
222 226 230 197 221 235 233 226 213 204 201 204 218 219 226 194 250 268 75 196 238 267 285 301 299 295 284 279 286 293 298 257 216 205 201 198 198 189 187 186 184 180 175 170 165 165 169 169 171 171 173 176 181 192 206 206 213 213 216 220 224 234 237 241 245 252 251 250 250 257 261 268 277 282 294 302 293 290 295 297 295 295 296 296 290 283 281
208 192 213 204 231 223 230 232 214 205 200 203 214 222 226 230 250 267 254 182 259 279 292 298 297 295 286 290 293 283 264 253 233 213 207 205 197 193 192 189 188 184 176 168 166 162 166 170 168 171 169 172 182 197 204 205 210 214 214 217 224 231 238 240 247 251 249 243 250 261 270 277 285 288 303 299 290 295 300 300 297 297 299 293 285 284 287
197 181 180 199 222 214 223 216 204 199 199 206 210 234 209 223 245 255 270 272 274 282 288 276 282 281 284 272 269 270 274 271 245 228 218 210 204 200 196 189 187 184 178 171 165 162 167 169 168 169 172 179 191 211 211 213 208 213 215 216 222 229 233 240 248 252 247 245 251 260 269 275 278 291 303 295 294 302 302 298 299 296 287 288 295 297 299
192 178 193 185 202 211 204 192 193 190 194 204 197 225 195 220 235 239 255 265 270 270 278 262 283 287 270 262 257 258 268 273 261 245 236 224 213 204 195 191 188 183 180 175 169 166 168 166 167 174 175 186 198 210 210 216 219 212 215 218 223 226 233 239 246 249 248 251 256 268 275 275 279 290 295 293 301 302 298 295 297 299 298 297 295 298 298
203 157 199 182 187 204 210 200 194 195 198 224 210 222 203 228 248 247 247 260 275 343 328 292 292 289 284 275 267 269 273 274 267 255 242 233 219 208 197 191 188 185 182 177 171 167 166 169 171 173 178 194 202 205 208 210 216 221 215 219 222 229 234 240 244 250 253 258 264 270 274 279 286 289 299 296 302 304 303 305 302 298 300 297 299 301 301
180 160 189 191 210 225 230 215 219 206 219 212 222 224 217 219 211 251 278 291 307 294 285 276 278 285 295 300 291 272 269 267 252 249 245 239 226 211 202 194 190 188 183 174 166 163 163 167 176 181 195 198 202 203 208 207 215 219 219 220 226 228 235 241 245 252 254 261 266 270 274 281 283 287 298 299 308 310 304 299 296 294 298 299 297 294 292
211 158 173 216 231 242 91 111 73 172 223 219 234 242 216 210 210 239 256 260 267 274 275 277 280 292 301 288 274 260 239 234 245 246 242 231 222 211 203 199 194 187 181 163 159 159 164 174 176 187 193 198 200 204 207 211 213 215 215 223 223 228 237 240 246 251 260 264 269 273 277 276 274 277 290 293 298 305 312 311 304 303 300 301 298 293 294
173 197 212 232 242 99 130 100 107 80 115 195 218 239 226 239 242 236 249 265 272 276 275 281 298 286 292 289 265 246 238 228 232 240 234 221 216 211 205 196 192 179 168 158 157 154 158 166 182 191 196 202 206 207 206 213 213 214 216 220 224 226 235 242 248 255 262 268 273 274 271 268 267 277 286 293 301 304 300 305 309 303 299 299 298 291 291
229 222 227 235 88 157 127 150 177 183 194 184 212 246 243 228 224 243 265 265 266 268 273 272 260 274 283 269 246 201 221 216 230 233 231 213 205 202 197 191 184 171 160 159 146 140 151 172 186 192 199 202 205 209 209 213 215 215 217 219 223 226 238 245 253 259 262 272 279 277 279 274 272 278 286 292 294 302 301 304 304 305 314 324 324 345 338
232 239 237 239 244 251 229 212 207 200 205 213 226 282 257 226 248 263 266 253 256 259 247 212 205 210 253 256 174 143 172 181 200 212 214 195 182 185 181 176 167 161 158 153 141 155 170 182 189 197 201 202 202 207 213 214 217 217 218 220 219 230 240 248 255 258 261 271 277 278 271 271 272 281 283 298 300 310 318 315 306 317 342 326 330 333 297
219 235 242 237 247 240 263 207 169 153 143 153 104 234 260 236 247 214 255 247 239 251 249 192 181 226 252 261 125 148 152 164 172 174 178 169 158 169 172 173 165 158 159 154 154 167 177 186 193 198 199 201 202 206 212 219 223 219 219 218 221 231 238 252 257 258 266 269 272 272 268 270 273 280 298 312 309 309 315 305 331 337 349 326 325 319 322
225 242 238 246 240 264 137 108 132 139 143 106 205 259 273 102 184 190 218 249 253 242 226 197 206 231 251 320 83 145 155 147 146 156 156 151 146 161 158 162 156 154 149 150 167 178 185 196 198 198 195 199 205 210 212 218 223 218 218 217 219 230 245 253 254 264 264 266 264 269 272 267 286 21 139 261 284 292 295 292 312 314 324 314 315 313 306
222 223 248 250 236 89 91 109 129 132 137 193 252 251 275 60 22 227 268 262 260 240 210 201 239 221 303 98 147 145 137 134 135 138 139 142 149 153 160 153 158 154 162 166 172 182 192 201 204 200 196 198 205 209 215 219 222 219 216 219 223 236 243 241 250 251 253 255 263 267 293 300 223 196 210 264 258 246 255 265 269 283 298 307 309 301 299
231 229 238 240 256 88 76 108 145 137 186 233 261 7 1 308 273 153 260 286 280 256 224 216 240 224 128 152 152 145 138 133 132 140 140 144 149 153 152 144 155 163 176 178 186 197 198 206 205 194 191 192 198 205 214 220 216 217 217 228 232 227 209 211 241 259 266 268 266 266 253 244 238 175 205 240 250 258 254 244 252 278 285 291 290 286 283
245 238 243 235 242 90 321 115 156 113 256 298 33 348 308 36 341 328 292 267 274 257 238 224 242 229 169 162 152 142 138 142 147 145 142 144 155 155 153 163 175 174 177 188 198 209 211 211 192 182 189 196 198 201 216 221 222 218 217 210 185 169 170 202 229 254 263 264 267 258 227 223 228 238 214 239 252 252 255 255 261 272 285 301 306 310 307
252 226 232 266 40 93 64 301 296 163 309 12 342 333 306 334 325 313 296 284 284 273 259 231 204 199 156 155 144 138 144 147 145 141 138 139 147 159 182 174 176 188 189 197 203 213 222 183 175 181 191 198 203 210 221 220 213 199 180 163 148 156 190 211 235 261 265 267 258 249 247 236 219 230 235 252 261 254 248 267 274 281 278 294 302 293 294
254 295 311 95 142 7 344 315 337 324 327 319 319 303 299 300 293 290 282 287 278 256 253 232 199 188 186 171 166 149 147 149 151 146 151 150 152 161 181 178 171 190 199 197 203 186 152 145 171 181 193 205 205 215 220 217 196 176 156 145 147 173 207 220 234 250 258 268 269 263 250 226 223 229 248 255 256 248 261 273 275 275 272 283 302 298 302
165 135 50 26 75 30 12 93 22 342 340 341 329 313 300 281 276 273 274 280 279 243 221 224 192 193 173 160 155 142 138 140 137 137 137 138 136 137 129 115 137 171 180 189 187 178 174 199 177 197 211 220 223 223 221 200 183 171 155 153 166 190 210 217 215 215 246 249 287 312 274 249 238 241 254 253 252 247 263 276 275 273 274 259 257 275 305
258 219 161 354 13 26 72 60 44 6 360 345 337 311 290 287 289 287 274 270 266 246 214 215 192 179 170 155 136 136 138 137 141 143 142 138 137 130 120 110 116 129 166 207 219 230 232 205 224 225 228 233 244 251 236 198 175 159 159 162 173 184 204 170 144 123 101 345 331 282 247 249 253 256 257 252 252 254 268 271 273 273 278 281 283 289 292
239 5 81 9 320 78 97 50 25 12 357 341 333 318 293 284 286 286 284 261 241 214 204 199 186 171 168 154 140 146 141 136 136 131 130 122 110 102 104 115 127 139 181 229 241 252 276 217 212 276 264 247 236 241 214 208 164 150 159 170 179 190 179 156 154 140 154 144 237 269 264 280 289 284 249 239 275 281 277 273 273 274 281 293 301 304 308
68 164 146 356 302 207 152 41 22 5 347 336 327 324 311 291 278 269 259 246 229 209 192 185 185 167 151 150 160 162 141 137 133 127 120 117 117 123 129 130 146 129 122 80 58 56 68 64 37 352 299 291 279 141 215 204 146 158 157 142 126 112 128 166 164 192 242 223 237 245 271 257 262 276 308 299 292 284 359 350 360 315 299 298 305 322 318
231 247 23 3 299 250 275 352 355 345 339 335 328 321 314 304 291 273 244 222 207 194 166 172 169 137 115 142 183 177 151 141 129 123 121 123 121 117 114 118 107 95 81 75 81 88 96 87 93 118 122 153 240 237 182 133 152 139 122 113 125 233 191 199 224 216 222 268 268 276 286 286 275 100 74 52 19 313 79 55 42 33 23 12 4 342 331
327 36 49 47 323 292 301 324 332 329 332 339 338 332 319 310 295 274 250 192 160 160 157 175 148 135 142 153 186 185 137 123 111 110 120 125 121 115 120 111 99 90 91 94 102 103 93 98 115 116 135 143 164 144 112 142 145 139 144 146 163 262 228 240 294 303 294 291 272 247 264 275 272 276 192 75 39 34 48 69 51 41 45 38 24 6 343
293 338 4 349 330 307 310 312 316 318 330 331 336 337 328 309 303 288 256 211 163 160 145 161 165 159 159 152 168 125 119 119 110 105 103 106 110 114 116 109 112 113 110 110 113 112 113 126 123 167 173 162 165 185 142 150 159 160 167 167 201 224 245 234 128 245 269 265 274 273 265 261 270 264 281 108 78 39 17 37 56 78 85 82 72 62 44
322 333 313 318 303 294 289 294 302 304 318 343 333 327 325 318 307 299 272 248 182 160 158 155 157 174 165 146 138 141 138 123 122 119 117 108 106 117 129 126 126 128 131 130 130 137 147 148 156 203 238 251 244 282 186 182 188 171 172 193 229 250 228 194 219 213 242 250 254 273 283 283 271 269 183 182 155 134 88 296 329 73 121 123 120 112 97
312 310 310 305 297 285 292 293 292 323 336 331 324 319 315 306 295 290 275 235 198 172 166 166 160 164 181 175 163 148 131 125 117 126 134 138 144 147 151 145 138 140 140 138 132 131 131 133 126 159 225 222 130 116 198 134 143 128 157 175 214 234 227 209 230 231 248 247 259 261 271 300 298 273 244 206 180 147 153 151 153 132 141 134 141 134 100
300 299 298 297 288 291 311 320 316 318 316 318 312 310 306 304 294 263 262 231 219 186 173 172 172 163 170 172 154 146 147 128 128 146 156 166 170 164 152 136 139 140 138 128 118 102 98 111 133 163 207 30 100 116 108 116 130 160 197 213 234 197 199 240 237 227 246 252 254 285 299 265 250 261 163 172 189 165 174 186 180 170 158 129 94 78 64
287 283 281 285 297 306 311 310 311 307 305 306 307 305 309 303 278 252 237 214 201 190 179 188 171 162 165 154 155 143 144 153 164 165 168 170 139 123 125 134 139 142 128 126 124 132 150 157 186 213 121 97 89 150 158 176 219 236 240 249 249 249 188 201 225 233 217 231 304 304 314 274 45 82 84 108 128 101 103 113 177 184 164 75 116 119 103
277 292 311 303 300 299 297 296 292 289 290 292 296 300 298 293 284 260 237 222 198 184 177 179 166 168 171 165 176 171 174 175 169 161 139 118 121 125 129 133 136 128 127 134 136 147 162 176 198 172 103 69 305 293 267 249 249 246 243 243 246 235 215 195 206 173 187 215 204 126 130 135 137 111 103 101 91 100 133 143 147 160 86 45 122 150 110
317 314 302 295 294 292 292 290 294 297 294 294 295 294 291 288 282 264 242 233 218 202 183 172 172 177 185 178 181 184 182 168 143 130 127 126 117 119 117 120 128 126 133 140 147 159 183 193 154 132 122 242 248 231 241 235 238 234 273 300 302 305 236 163 160 163 169 177 135 126 155 143 128 122 110 85 76 64 53 50 24 32 42 68 34 14 5
302 303 300 298 297 296 291 293 293 292 293 292 289 289 288 284 277 272 260 227 201 215 190 172 175 181 187 182 174 167 137 122 119 116 108 106 108 109 119 138 176 173 161 144 146 156 143 127 105 83 46 332 350 309 289 266 249 193 177 185 94 48 36 86 161 166 165 148 155 156 131 125 123 119 109 105 100 94 83 61 62 50 55 45 35 27 14
298 298 301 301 297 298 302 303 298 295 295 296 292 284 284 282 281 273 265 245 211 214 193 184 180 175 163 143 129 120 114 110 105 103 101 96 94 94 97 113 86 88 110 121 131 126 136 133 97 76 45 358 317 297 281 279 247 213 102 106 108 149 108 230 175 143 150 146 142 139 135 136 137 127 118 104 98 91 81 80 64 56 48 43 41 31 22
294 294 289 299 308 309 310 309 305 302 300 296 294 295 288 279 281 282 276 265 228 205 203 172 152 139 125 123 125 119 112 106 103 102 99 97 96 97 104 105 116 121 117 114 110 108 93 87 86 74 62 57 31 29 332 63 217 145 121 120 112 109 146 178 90 155 147 146 137 135 132 132 129 113 97 98 95 97 95 85 84 75 59 54 53 40 32
290 294 300 303 302 302 302 301 300 295 289 285 283 282 279 271 268 271 276 274 250 206 156 154 147 129 123 123 127 127 123 121 114 108 108 110 111 113 117 121 117 115 112 122 129 110 103 95 86 73 55 68 79 67 60 69 98 82 91 104 111 125 143 140 145 147 115 100 112 121 129 129 123 123 143 123 106 60 26 61 69 77 91 82 75 68 41
292 295 296 295 294 292 296 296 297 294 291 286 281 279 280 274 260 262 255 259 246 178 143 145 139 134 131 140 143 132 119 114 114 115 116 117 117 119 126 129 127 124 116 104 108 115 102 92 86 112 94 49 36 19 63 48 63 90 89 102 122 131 133 124 118 118 125 129 135 136 150 144 138 128 130 209 163 139 115 26 65 108 122 124 109 98 76
290 292 295 296 297 299 298 297 295 293 291 287 280 276 275 281 273 264 236 216 144 109 94 75 54 122 126 131 127 116 113 112 113 115 118 117 126 134 139 133 132 130 116 99 62 41 69 82 61 1 332 53 24 51 27 37 96 89 111 119 126 129 123 126 123 122 130 132 139 158 138 122 129 148 203 243 250 282 292 210 127 115 123 140 125 106 103
283 285 291 300 304 302 301 298 292 287 281 278 278 278 281 283 280 258 150 137 126 123 124 120 106 77 48 58 80 94 99 108 111 115 121 137 140 141 135 135 134 135 155 132 98 67 54 56 54 290 280 112 105 77 51 335 122 121 140 143 141 142 141 147 154 158 160 164 167 145 136 160 173 165 193 227 234 212 197 139 127 127 136 105 108 114 94
285 287 294 300 305 303 300 297 293 283 273 263 255 250 247 236 191 165 162 135 121 117 115 116 112 106 101 90 84 95 103 106 109 116 135 141 145 136 131 125 135 167 150 74 71 67 62 79 128 118 86 105 105 106 90 15 316 182 132 150 133 140 141 137 142 142 152 140 147 154 201 251 222 199 176 191 178 186 158 146 152 154 132 128 128 124 128
284 284 287 296 302 303 302 296 284 271 263 256 233 173 146 127 125 124 113 100 92 96 98 95 95 96 99 107 113 112 115 116 120 138 139 140 138 127 109 92 87 78 103 132 123 105 127 146 119 102 94 99 103 100 102 65 315 37 90 105 126 133 135 138 133 131 129 139 160 157 165 168 192 245 183 159 160 160 154 157 160 160 159 148 155 148 150
291 291 291 295 303 306 299 293 287 280 264 218 165 144 139 138 135 125 111 101 95 94 96 101 105 108 110 111 123 117 113 120 132 140 140 133 129 125 123 117 116 113 113 114 103 85 89 252 133 98 118 136 126 110 101 76 290 118 135 125 132 129 123 120 141 145 146 147 145 167 168 170 169 157 153 154 153 154 152 160 167 160 152 151 159 156 174
292 291 292 296 300 299 296 290 279 261 223 158 136 125 125 119 120 117 116 118 120 115 111 111 115 126 141 148 141 126 129 129 135 123 128 146 152 161 151 123 130 132 136 95 87 109 207 282 93 147 129 145 110 104 133 172 229 106 92 141 173 146 157 169 153 157 163 171 174 201 187 170 157 174 167 170 164 167 165 168 167 164 168 170 173 183 183
284 286 287 290 300 301 291 263 237 191 152 145 140 140 133 122 109 102 102 104 103 98 98 94 107 130 137 129 119 118 128 137 133 139 154 164 170 168 145 132 135 106 99 109 124 146 149 129 78 42 98 105 96 43 351 247 237 174 196 189 172 173 164 156 203 232 214 189 183 223 197 223 212 160 151 162 169 171 164 166 172 179 176 175 189 185 173
287 286 295 292 299 302 273 239 177 153 147 136 134 126 122 118 115 123 131 137 137 134 133 133 129 130 139 133 133 141 144 147 146 143 136 117 125 149 146 133 127 124 153 142 150 130 127 126 104 81 47 38 68 88 258 265 237 200 165 150 154 163 166 176 213 182 207 201 189 182 188 167 166 156 155 159 153 163 170 176 181 172 177 183 176 176 172
274 259 257 288 311 336 12 21 163 154 140 131 129 128 124 120 124 131 136 138 135 135 133 138 139 150 158 150 149 149 154 155 157 161 156 142 124 110 139 145 139 145 162 158 179 143 126 95 94 95 92 84 87 294 284 297 268 216 218 201 195 184 164 167 189 205 197 201 209 201 196 179 179 161 168 153 162 166 171 180 181 172 179 183 179 170 170
254 253 266 168 259 115 130 200 86 111 109 124 136 135 137 132 126 123 130 140 135 133 136 144 152 162 161 160 157 156 163 168 170 167 167 158 157 152 144 130 141 148 145 152 132 121 107 103 103 107 104 106 83 278 281 31 287 282 230 224 215 219 192 188 193 200 193 197 189 190 171 190 187 179 178 143 130 165 170 179 184 193 184 200 174 182 168
232 230 206 217 311 359 13 54 126 122 127 154 160 141 116 105 116 127 142 141 146 153 154 160 163 168 166 162 155 158 163 162 156 166 167 170 165 150 157 160 143 131 150 184 132 123 111 118 127 134 142 169 221 234 74 7 281 224 226 236 217 202 217 187 178 201 186 201 199 193 188 196 187 187 168 168 175 199 150 159 178 182 179 199 194 202 180
258 239 260 264 247 200 105 324 303 253 194 174 174 166 155 146 144 143 141 144 147 148 155 166 165 168 168 167 161 167 167 160 157 163 167 155 141 143 145 144 124 141 173 169 137 140 136 148 148 149 150 154 262 300 30 329 359 292 250 249 229 219 213 193 196 183 195 202 197 201 110 280 208 184 162 202 173 209 162 184 216 189 183 194 201 185 217
281 280 254 234 226 171 234 249 225 207 199 205 167 153 149 151 145 136 137 137 136 143 148 151 151 154 159 169 169 174 168 170 162 166 171 154 154 142 159 169 158 171 172 119 122 125 138 142 143 152 158 192 221 84 330 33 340 339 275 224 244 223 208 196 189 195 194 188 187 205 195 197 198 213 189 199 196 195 184 189 202 202 203 196 198 199 194
264 244 231 208 191 177 178 215 231 188 196 195 163 142 141 137 131 131 134 138 149 155 153 143 150 154 161 170 178 177 170 180 186 163 169 167 164 166 169 142 151 168 195 171 168 151 138 139 156 164 185 224 254 47 331 25 6 329 258 252 218 199 223 193 204 191 197 183 197 209 210 197 194 192 197 205 206 196 197 211 213 211 210 212 208 212 192
252 201 257 261 165 165 101 97 232 207 127 136 126 129 138 146 148 147 153 161 164 163 155 157 168 165 173 171 186 183 173 173 193 168 173 180 179 181 168 171 169 187 218 263 163 134 145 159 173 183 206 217 189 286 11 341 280 236 292 177 248 220 159 46 51 32 241 202 219 195 197 214 188 131 255 213 201 200 199 202 207 74 41 338 215 201 202
221 200 187 185 192 196 186 145 59 60 81 91 105 125 146 179 126 143 165 166 163 182 187 160 176 175 182 181 188 184 187 183 177 174 179 178 192 187 184 182 170 181 193 202 212 155 155 180 191 194 213 255 297 277 293 251 281 208 202 239 191 237 150 191 218 198 214 220 206 199 203 199 185 183 204 209 184 207 206 206 210 193 199 209 221 211 206
57 52 49 47 48 46 50 64 52 55 72 105 102 131 169 105 124 155 141 169 205 187 205 188 188 184 207 201 201 197 195 195 193 181 192 186 194 194 185 189 184 183 195 218 230 234 202 193 192 213 284 284 286 307 122 149 234 265 245 256 257 252 226 201 208 214 195 191 226 212 186 217 193 190 207 210 199 200 197 205 213 206 195 206 208 208 207